Find Kosmos-1058

NORAD ID: 11135 Int'l Des: 1978-109 Owner: GUKOSR Country: SU operational
LEOCIRCULAR

Aktuelle Ansicht

3D-Globus wird geladen...

About Kosmos-1058

Kosmos-1058 (NORAD 11135) is a satellite launched Dec 5, 1978 by GUKOSR of SU. It operates in LEO, CIRCULAR orbit with a mass of 60.00 kg.

Nächste Überflüge

Passes for default location (London). Set your location on the main map for personalized predictions.

Höhenverlauf

Loading altitude history...

Zweizeiliger Elementsatz

1 11135U 78109H 26195.22515233 -.00000014 00000-0 14472-4 0 9990
2 11135 74.0178 5.9254 0036602 203.3144 267.4529 12.39503591154013
Epoch: 14. Juli 2026 • Age: 10 hours

Aktueller Status

Höhe 1513.9 km
Apogäum / Perigäum N/A
Geschwindigkeit 7.12 km/s
Subsatellitenpunkt 56.33°N, 0.46°E
Startdatum 5. Dez. 1978
Alter 47.6 years
Typ other

Technische Details

Klassifizierung Payload
Masse 60.00 kg
Trockenmasse 60.00 kg
Gesamtmasse 60.00 kg
Länge 0.80 m
Durchmesser 0.80 m
Spannweite 0.80 m
Form Poly
Hersteller NPOPM
Bus-Typ Strela-1 11F625
Phasenstatus In Orbit
Besitzer/Staat GUKOSR/SU

Most Searched